This is the latest recevied weather packets stored in our database for station/object DL6MM-4. If no packets are shown the sender has not sent any weather packets the latest 10 day(s).
| Time | Temp. | Humidity | Pressure | Rain* | Wind** | Luminosity | Snow |
|---|---|---|---|---|---|---|---|
| 1777508354 | 3.33° C | 73% | 1028.8 hPa | 0 mm | - | - | - |
| 1777507754 | 3.33° C | 73% | 1028.8 hPa | 0 mm | - | - | - |
| 1777507154 | 3.33° C | 73% | 1028.7 hPa | 0 mm | - | - | - |
| 1777506554 | 3.33° C | 74% | 1028.8 hPa | 0 mm | - | - | - |
| 1777505954 | 3.33° C | 73% | 1028.7 hPa | 0 mm | - | - | - |
| 1777505354 | 3.89° C | 75% | 1028.7 hPa | 0 mm | - | - | - |
| 1777504754 | 3.89° C | 73% | 1028.8 hPa | 0 mm | - | - | - |
| 1777504154 | 3.89° C | 73% | 1028.7 hPa | 0 mm | - | - | - |
| 1777503554 | 3.89° C | 74% | 1028.7 hPa | 0 mm | - | - | - |
| 1777502954 | 4.44° C | 72% | 1028.7 hPa | 0 mm | - | - | - |
| 1777502354 | 3.89° C | 73% | 1028.5 hPa | 0 mm | - | - | - |
| 1777501754 | 4.44° C | 72% | 1028.5 hPa | 0 mm | - | - | - |
| 1777501154 | 5° C | 70% | 1028.5 hPa | 0 mm | - | - | - |
| 1777500554 | 5.56° C | 68% | 1028.5 hPa | 0 mm | - | - | - |
| 1777499954 | 5.56° C | 70% | 1028.4 hPa | 0 mm | - | - | - |
| 1777499354 | 5.56° C | 68% | 1028.3 hPa | 0 mm | - | - | - |
| 1777498754 | 6.11° C | 65% | 1028.2 hPa | 0 mm | - | - | - |
| 1777498154 | 6.11° C | 65% | 1028.2 hPa | 0 mm | - | - | - |
| 1777497554 | 7.22° C | 59% | 1028.3 hPa | 0 mm | - | - | - |
| 1777496954 | 7.78° C | 56% | 1028.2 hPa | 0 mm | - | - | - |
| 1777496354 | 7.78° C | 54% | 1028 hPa | 0 mm | - | - | - |
| 1777495754 | 8.33° C | 54% | 1028 hPa | 0 mm | - | - | - |
| 1777495154 | 8.33° C | 54% | 1028 hPa | 0 mm | - | - | - |
| 1777494554 | 8.89° C | 53% | 1027.9 hPa | 0 mm | - | - | - |
| 1777493954 | 8.89° C | 52% | 1027.9 hPa | 0 mm | - | - | - |
* Rain latest hour (hover to see other rain measurements)
** Current wind speed in m/s (hover to see current wind gust speed)